Time,TemperatureF,DewpointF,PressureIn,WindDirection,WindDirectionDegrees,WindSpeedMPH,WindSpeedGustMPH,Humidity,HourlyPrecipIn,Conditions,Clouds,dailyrainin,SoftwareType,DateUTC
2013-01-10 00:03:00,44.0,33.0,29.77,WNW,288,3.0,5.0,65,0.00,,,-99.99,,2013-01-10 05:03:00,
2013-01-10 00:12:00,44.0,33.0,29.77,WNW,288,3.0,5.0,65,0.00,,,-99.99,,2013-01-10 05:12:00,
2013-01-10 00:22:00,43.0,32.0,29.77,West,271,3.0,7.0,64,0.00,,,-99.99,,2013-01-10 05:22:00,
2013-01-10 00:33:00,43.0,31.0,29.77,West,272,3.0,7.0,63,0.00,,,-99.99,,2013-01-10 05:33:00,
2013-01-10 00:42:00,43.0,31.0,29.77,West,272,3.0,7.0,63,0.00,,,-99.99,,2013-01-10 05:42:00,
2013-01-10 00:53:00,43.0,32.0,29.77,WNW,283,3.0,5.0,64,0.00,,,-99.99,,2013-01-10 05:53:00,
2013-01-10 01:02:00,42.0,31.0,29.77,West,278,3.0,5.0,65,0.00,,,-99.99,,2013-01-10 06:02:00,
2013-01-10 01:12:00,42.0,31.0,29.77,West,278,3.0,5.0,65,0.00,,,-99.99,,2013-01-10 06:12:00,
2013-01-10 01:22:00,42.0,31.0,29.77,West,269,3.0,6.0,64,0.00,,,-99.99,,2013-01-10 06:22:00,
2013-01-10 01:32:00,42.0,31.0,29.79,West,279,3.0,5.0,64,0.00,,,-99.99,,2013-01-10 06:32:00,
2013-01-10 01:42:00,42.0,31.0,29.79,West,279,3.0,5.0,64,0.00,,,-99.99,,2013-01-10 06:42:00,
2013-01-10 01:52:00,42.0,30.0,29.80,WNW,282,2.0,5.0,63,0.00,,,-99.99,,2013-01-10 06:52:00,
2013-01-10 02:02:00,42.0,29.0,29.80,WNW,287,2.0,5.0,60,0.00,,,-99.99,,2013-01-10 07:02:00,
2013-01-10 02:12:00,42.0,29.0,29.80,WNW,287,2.0,5.0,60,0.00,,,-99.99,,2013-01-10 07:12:00,
2013-01-10 02:22:00,42.0,28.0,29.80,WNW,285,2.0,6.0,57,0.00,,,-99.99,,2013-01-10 07:22:00,
2013-01-10 02:32:00,42.0,28.0,29.80,WNW,287,3.0,7.0,57,0.00,,,-99.99,,2013-01-10 07:32:00,
2013-01-10 02:42:00,42.0,28.0,29.80,WNW,287,3.0,7.0,57,0.00,,,-99.99,,2013-01-10 07:42:00,
2013-01-10 02:52:00,42.0,27.0,29.81,WNW,295,3.0,7.0,56,0.00,,,-99.99,,2013-01-10 07:52:00,
2013-01-10 03:02:00,42.0,27.0,29.83,WNW,298,3.0,8.0,54,0.00,,,-99.99,,2013-01-10 08:02:00,
2013-01-10 03:12:00,42.0,27.0,29.83,WNW,298,3.0,8.0,54,0.00,,,-99.99,,2013-01-10 08:12:00,
2013-01-10 03:22:00,42.0,26.0,29.83,WNW,294,3.0,7.0,53,0.00,,,-99.99,,2013-01-10 08:22:00,
2013-01-10 03:32:00,42.0,26.0,29.83,WNW,291,3.0,10.0,53,0.00,,,-99.99,,2013-01-10 08:32:00,
2013-01-10 03:42:00,42.0,26.0,29.83,WNW,291,3.0,10.0,53,0.00,,,-99.99,,2013-01-10 08:42:00,
2013-01-10 03:53:00,41.0,26.0,29.83,WNW,292,3.0,6.0,54,0.00,,,-99.99,,2013-01-10 08:53:00,
2013-01-10 04:02:00,41.0,26.0,29.83,WNW,293,2.0,5.0,55,0.00,,,-99.99,,2013-01-10 09:02:00,
2013-01-10 04:12:00,41.0,26.0,29.83,WNW,293,2.0,5.0,55,0.00,,,-99.99,,2013-01-10 09:12:00,
2013-01-10 04:22:00,39.0,25.0,29.83,WNW,282,1.0,5.0,56,0.00,,,-99.99,,2013-01-10 09:22:00,
2013-01-10 04:32:00,40.0,24.0,29.83,WNW,295,4.0,8.0,53,0.00,,,-99.99,,2013-01-10 09:32:00,
2013-01-10 04:42:00,40.0,24.0,29.83,WNW,295,4.0,8.0,53,0.00,,,-99.99,,2013-01-10 09:42:00,
2013-01-10 04:52:00,41.0,25.0,29.83,WNW,295,4.0,9.0,52,0.00,,,-99.99,,2013-01-10 09:52:00,
2013-01-10 05:03:00,40.0,24.0,29.84,WNW,299,4.0,8.0,52,0.00,,,-99.99,,2013-01-10 10:03:00,
2013-01-10 05:12:00,40.0,24.0,29.84,WNW,299,4.0,8.0,52,0.00,,,-99.99,,2013-01-10 10:12:00,
2013-01-10 05:22:00,40.0,23.0,29.85,WNW,296,5.0,11.0,51,0.00,,,-99.99,,2013-01-10 10:22:00,
2013-01-10 05:32:00,40.0,24.0,29.85,WNW,295,3.0,9.0,52,0.00,,,-99.99,,2013-01-10 10:32:00,
2013-01-10 05:42:00,40.0,24.0,29.85,WNW,295,3.0,9.0,52,0.00,,,-99.99,,2013-01-10 10:42:00,
2013-01-10 05:53:00,39.0,24.0,29.85,WNW,300,3.0,6.0,54,0.00,,,-99.99,,2013-01-10 10:53:00,
2013-01-10 06:02:00,39.0,23.0,29.85,WNW,288,4.0,9.0,53,0.00,,,-99.99,,2013-01-10 11:02:00,
2013-01-10 06:12:00,39.0,24.0,29.85,WNW,298,2.0,5.0,55,0.00,,,-99.99,,2013-01-10 11:12:00,
2013-01-10 06:22:00,39.0,24.0,29.85,WNW,298,2.0,5.0,55,0.00,,,-99.99,,2013-01-10 11:22:00,
2013-01-10 06:33:00,38.0,23.0,29.88,WNW,289,3.0,5.0,55,0.00,,,-99.99,,2013-01-10 11:33:00,
2013-01-10 06:43:00,38.0,23.0,29.88,WNW,289,3.0,5.0,55,0.00,,,-99.99,,2013-01-10 11:43:00,
2013-01-10 06:53:00,38.0,23.0,29.88,WNW,297,4.0,7.0,55,0.00,,,-99.99,,2013-01-10 11:53:00,
2013-01-10 07:03:00,38.0,24.0,29.88,WNW,291,2.0,6.0,56,0.00,,,-99.99,,2013-01-10 12:03:00,
2013-01-10 07:12:00,38.0,24.0,29.88,WNW,291,2.0,6.0,56,0.00,,,-99.99,,2013-01-10 12:12:00,
2013-01-10 07:22:00,38.0,24.0,29.88,WNW,289,4.0,8.0,56,0.00,,,-99.99,,2013-01-10 12:22:00,
2013-01-10 07:33:00,38.0,24.0,29.88,WNW,285,1.0,5.0,57,0.00,,,-99.99,,2013-01-10 12:33:00,
2013-01-10 07:43:00,38.0,24.0,29.88,WNW,285,1.0,5.0,57,0.00,,,-99.99,,2013-01-10 12:43:00,
2013-01-10 07:53:00,38.0,24.0,29.88,WNW,282,2.0,4.0,57,0.00,,,-99.99,,2013-01-10 12:53:00,
2013-01-10 08:02:00,38.0,24.0,29.91,WNW,299,3.0,7.0,57,0.00,,,-99.99,,2013-01-10 13:02:00,
2013-01-10 08:12:00,38.0,24.0,29.91,WNW,299,3.0,7.0,57,0.00,,,-99.99,,2013-01-10 13:12:00,
2013-01-10 08:22:00,39.0,25.0,29.91,WNW,295,3.0,5.0,56,0.00,,,-99.99,,2013-01-10 13:22:00,
2013-01-10 08:32:00,40.0,25.0,29.91,WNW,294,3.0,7.0,54,0.00,,,-99.99,,2013-01-10 13:32:00,
2013-01-10 08:42:00,40.0,25.0,29.91,WNW,294,3.0,7.0,54,0.00,,,-99.99,,2013-01-10 13:42:00,
2013-01-10 08:53:00,41.0,24.0,29.91,WNW,289,3.0,8.0,51,0.00,,,-99.99,,2013-01-10 13:53:00,
2013-01-10 09:02:00,43.0,25.0,29.91,WNW,290,4.0,8.0,49,0.00,,,-99.99,,2013-01-10 14:02:00,
2013-01-10 09:12:00,43.0,25.0,29.91,WNW,290,4.0,8.0,49,0.00,,,-99.99,,2013-01-10 14:12:00,
2013-01-10 09:22:00,45.0,25.0,29.92,WNW,290,2.0,7.0,46,0.00,,,-99.99,,2013-01-10 14:22:00,
2013-01-10 09:33:00,46.0,24.0,29.91,NNE,27,4.0,7.0,42,0.00,,,-99.99,,2013-01-10 14:33:00,
2013-01-10 09:43:00,46.0,24.0,29.91,NNE,27,4.0,7.0,42,0.00,,,-99.99,,2013-01-10 14:43:00,
2013-01-10 09:53:00,46.0,25.0,29.94,WNW,288,3.0,9.0,44,0.00,,,-99.99,,2013-01-10 14:53:00,
2013-01-10 10:03:00,47.0,25.0,29.94,NNW,328,3.0,7.0,42,0.00,,,-99.99,,2013-01-10 15:03:00,
2013-01-10 10:12:00,47.0,25.0,29.94,NNW,328,3.0,7.0,42,0.00,,,-99.99,,2013-01-10 15:12:00,
2013-01-10 10:23:00,45.0,24.0,29.94,WNW,291,5.0,8.0,44,0.00,,,-99.99,,2013-01-10 15:23:00,
2013-01-10 10:33:00,46.0,25.0,29.94,WNW,299,3.0,8.0,43,0.00,,,-99.99,,2013-01-10 15:33:00,
2013-01-10 10:43:00,46.0,25.0,29.94,WNW,299,3.0,8.0,43,0.00,,,-99.99,,2013-01-10 15:43:00,
2013-01-10 10:53:00,48.0,25.0,29.94,WNW,297,4.0,8.0,41,0.00,,,-99.99,,2013-01-10 15:53:00,
2013-01-10 11:03:00,51.0,26.0,29.94,NW,305,3.0,6.0,37,0.00,,,-99.99,,2013-01-10 16:03:00,
2013-01-10 11:13:00,51.0,26.0,29.94,NW,305,3.0,6.0,37,0.00,,,-99.99,,2013-01-10 16:13:00,
2013-01-10 11:23:00,53.0,26.0,29.93,ENE,68,3.0,8.0,35,0.00,,,-99.99,,2013-01-10 16:23:00,
2013-01-10 11:33:00,50.0,25.0,29.91,WNW,295,4.0,8.0,38,0.00,,,-99.99,,2013-01-10 16:33:00,
2013-01-10 11:43:00,50.0,25.0,29.91,WNW,295,4.0,8.0,38,0.00,,,-99.99,,2013-01-10 16:43:00,
2013-01-10 11:53:00,50.0,25.0,29.91,ENE,72,3.0,6.0,37,0.00,,,-99.99,,2013-01-10 16:53:00,
2013-01-10 12:03:00,52.0,25.0,29.91,NNW,330,3.0,5.0,35,0.00,,,-99.99,,2013-01-10 17:03:00,
2013-01-10 12:12:00,52.0,25.0,29.91,NNW,330,3.0,5.0,35,0.00,,,-99.99,,2013-01-10 17:12:00,
2013-01-10 12:22:00,55.0,25.0,29.91,WNW,287,2.0,6.0,31,0.00,,,-99.99,,2013-01-10 17:22:00,
2013-01-10 12:33:00,54.0,26.0,29.91,WNW,290,3.0,8.0,33,0.00,,,-99.99,,2013-01-10 17:33:00,
2013-01-10 12:42:00,54.0,26.0,29.91,WNW,290,3.0,8.0,33,0.00,,,-99.99,,2013-01-10 17:42:00,
2013-01-10 12:53:00,52.0,25.0,29.91,WNW,297,3.0,7.0,35,0.00,,,-99.99,,2013-01-10 17:53:00,
2013-01-10 13:03:00,55.0,25.0,29.91,NNW,327,3.0,7.0,31,0.00,,,-99.99,,2013-01-10 18:03:00,
2013-01-10 13:12:00,55.0,23.0,29.91,WNW,290,2.0,8.0,28,0.00,,,-99.99,,2013-01-10 18:12:00,
2013-01-10 13:23:00,55.0,23.0,29.91,WNW,290,2.0,8.0,28,0.00,,,-99.99,,2013-01-10 18:23:00,
2013-01-10 13:33:00,58.0,24.0,29.91,WNW,301,3.0,6.0,27,0.00,,,-99.99,,2013-01-10 18:33:00,
2013-01-10 13:43:00,54.0,23.0,29.91,WNW,297,3.0,8.0,30,0.00,,,-99.99,,2013-01-10 18:43:00,
2013-01-10 13:53:00,54.0,23.0,29.91,WNW,297,3.0,8.0,30,0.00,,,-99.99,,2013-01-10 18:53:00,
2013-01-10 14:03:00,56.0,23.0,29.91,NNE,26,2.0,5.0,27,0.00,,,-99.99,,2013-01-10 19:03:00,
2013-01-10 14:13:00,53.0,22.0,29.91,NNW,328,3.0,8.0,30,0.00,,,-99.99,,2013-01-10 19:13:00,
2013-01-10 14:23:00,53.0,22.0,29.91,NNW,328,3.0,8.0,30,0.00,,,-99.99,,2013-01-10 19:23:00,
2013-01-10 14:33:00,53.0,22.0,29.91,WNW,297,3.0,5.0,30,0.00,,,-99.99,,2013-01-10 19:33:00,
2013-01-10 14:43:00,58.0,23.0,29.91,ENE,63,2.0,4.0,26,0.00,,,-99.99,,2013-01-10 19:43:00,
2013-01-10 14:53:00,58.0,23.0,29.91,ENE,63,2.0,4.0,26,0.00,,,-99.99,,2013-01-10 19:53:00,
2013-01-10 15:03:00,57.0,22.0,29.91,WNW,303,3.0,5.0,26,0.00,,,-99.99,,2013-01-10 20:03:00,
2013-01-10 15:13:00,53.0,23.0,29.91,WNW,289,3.0,6.0,31,0.00,,,-99.99,,2013-01-10 20:13:00,
2013-01-10 15:24:00,53.0,23.0,29.91,WNW,289,3.0,6.0,31,0.00,,,-99.99,,2013-01-10 20:24:00,
2013-01-10 15:33:00,54.0,23.0,29.91,WNW,294,2.0,5.0,30,0.00,,,-99.99,,2013-01-10 20:33:00,
2013-01-10 15:43:00,54.0,23.0,29.91,WNW,294,2.0,5.0,30,0.00,,,-99.99,,2013-01-10 20:43:00,
2013-01-10 15:53:00,50.0,23.0,29.94,WNW,286,3.0,6.0,34,0.00,,,-99.99,,2013-01-10 20:53:00,
2013-01-10 16:04:00,51.0,23.0,29.94,WNW,283,2.0,6.0,33,0.00,,,-99.99,,2013-01-10 21:04:00,
2013-01-10 16:13:00,53.0,23.0,29.94,NE,42,2.0,5.0,31,0.00,,,-99.99,,2013-01-10 21:13:00,
2013-01-10 16:23:00,53.0,23.0,29.94,NE,42,2.0,5.0,31,0.00,,,-99.99,,2013-01-10 21:23:00,
2013-01-10 16:33:00,48.0,22.0,29.94,ENE,76,1.0,4.0,35,0.00,,,-99.99,,2013-01-10 21:33:00,
2013-01-10 16:42:00,48.0,22.0,29.94,ENE,76,1.0,4.0,35,0.00,,,-99.99,,2013-01-10 21:42:00,
2013-01-10 16:53:00,45.0,22.0,29.94,WNW,302,3.0,5.0,40,0.00,,,-99.99,,2013-01-10 21:53:00,
2013-01-10 17:03:00,43.0,22.0,29.94,WNW,296,2.0,6.0,42,0.00,,,-99.99,,2013-01-10 22:03:00,
2013-01-10 17:12:00,43.0,22.0,29.94,WNW,286,1.0,3.0,43,0.00,,,-99.99,,2013-01-10 22:12:00,
2013-01-10 17:26:00,43.0,22.0,29.94,WNW,286,1.0,3.0,43,0.00,,,-99.99,,2013-01-10 22:26:00,
2013-01-10 17:33:00,42.0,22.0,29.94,WNW,284,1.0,4.0,45,0.00,,,-99.99,,2013-01-10 22:33:00,
2013-01-10 17:43:00,42.0,22.0,29.94,WNW,284,1.0,4.0,45,0.00,,,-99.99,,2013-01-10 22:43:00,
2013-01-10 18:03:00,41.0,22.0,29.94,WNW,291,2.0,4.0,46,0.00,,,-99.99,,2013-01-10 23:03:00,
2013-01-10 18:13:00,40.0,22.0,29.94,West,275,1.0,2.0,48,0.00,,,-99.99,,2013-01-10 23:13:00,
2013-01-10 18:23:00,40.0,22.0,29.94,West,275,1.0,2.0,48,0.00,,,-99.99,,2013-01-10 23:23:00,
2013-01-10 18:33:00,38.0,22.0,29.94,WSW,237,0.0,1.0,51,0.00,,,-99.99,,2013-01-10 23:33:00,
2013-01-10 18:43:00,38.0,22.0,29.94,WSW,237,0.0,1.0,51,0.00,,,-99.99,,2013-01-10 23:43:00,
2013-01-10 18:53:00,37.0,22.0,29.94,WSW,247,0.0,1.0,54,0.00,,,-99.99,,2013-01-10 23:53:00,
2013-01-10 19:03:00,37.0,23.0,29.96,SW,232,0.0,0.0,57,0.00,,,-99.99,,2013-01-11 00:03:00,
2013-01-10 19:13:00,36.0,23.0,29.96,SW,234,0.0,0.0,60,0.00,,,-99.99,,2013-01-11 00:13:00,
2013-01-10 19:23:00,36.0,23.0,29.96,SW,234,0.0,0.0,60,0.00,,,-99.99,,2013-01-11 00:23:00,
2013-01-10 19:33:00,36.0,24.0,29.97,WSW,247,0.0,0.0,62,0.00,,,-99.99,,2013-01-11 00:33:00,
2013-01-10 19:42:00,36.0,24.0,29.97,WSW,247,0.0,0.0,62,0.00,,,-99.99,,2013-01-11 00:42:00,
2013-01-10 19:53:00,36.0,25.0,29.97,South,170,0.0,1.0,63,0.00,,,-99.99,,2013-01-11 00:53:00,
2013-01-10 20:03:00,35.0,25.0,29.97,SSW,203,0.0,0.0,66,0.00,,,-99.99,,2013-01-11 01:03:00,
2013-01-10 20:13:00,35.0,25.0,29.95,West,281,0.0,1.0,67,0.00,,,-99.99,,2013-01-11 01:13:00,
2013-01-10 20:23:00,35.0,25.0,29.95,West,281,0.0,1.0,67,0.00,,,-99.99,,2013-01-11 01:23:00,
2013-01-10 20:33:00,35.0,25.0,29.97,SW,229,0.0,1.0,67,0.00,,,-99.99,,2013-01-11 01:33:00,
2013-01-10 20:43:00,35.0,25.0,29.97,SW,229,0.0,1.0,67,0.00,,,-99.99,,2013-01-11 01:43:00,
2013-01-10 20:53:00,35.0,25.0,29.96,WSW,237,0.0,0.0,67,0.00,,,-99.99,,2013-01-11 01:53:00,
2013-01-10 21:03:00,34.0,25.0,29.97,East,101,0.0,1.0,68,0.00,,,-99.99,,2013-01-11 02:03:00,
2013-01-10 21:13:00,36.0,25.0,29.97,East,98,0.0,1.0,64,0.00,,,-99.99,,2013-01-11 02:13:00,
2013-01-10 21:23:00,36.0,25.0,29.97,East,98,0.0,1.0,64,0.00,,,-99.99,,2013-01-11 02:23:00,
2013-01-10 21:33:00,36.0,25.0,29.97,WSW,241,0.0,1.0,63,0.00,,,-99.99,,2013-01-11 02:33:00,
2013-01-10 21:43:00,36.0,25.0,29.97,WSW,241,0.0,1.0,63,0.00,,,-99.99,,2013-01-11 02:43:00,
2013-01-10 21:54:00,35.0,24.0,29.97,SW,220,0.0,1.0,65,0.00,,,-99.99,,2013-01-11 02:54:00,
2013-01-10 22:02:00,34.0,24.0,29.97,WSW,240,0.0,2.0,66,0.00,,,-99.99,,2013-01-11 03:02:00,
2013-01-10 22:12:00,34.0,23.0,29.97,SW,221,0.0,1.0,65,0.00,,,-99.99,,2013-01-11 03:12:00,
2013-01-10 22:23:00,34.0,23.0,29.97,SW,221,0.0,1.0,65,0.00,,,-99.99,,2013-01-11 03:23:00,
2013-01-10 22:33:00,34.0,24.0,29.97,SSW,198,0.0,1.0,67,0.00,,,-99.99,,2013-01-11 03:33:00,
2013-01-10 22:43:00,34.0,24.0,29.97,SSW,198,0.0,1.0,67,0.00,,,-99.99,,2013-01-11 03:43:00,
2013-01-10 22:53:00,34.0,24.0,29.97,WSW,249,0.0,1.0,66,0.00,,,-99.99,,2013-01-11 03:53:00,
2013-01-10 23:02:00,35.0,24.0,29.97,West,278,1.0,3.0,63,0.00,,,-99.99,,2013-01-11 04:02:00,
2013-01-10 23:12:00,35.0,23.0,29.97,SSW,199,0.0,2.0,62,0.00,,,-99.99,,2013-01-11 04:12:00,
2013-01-10 23:22:00,35.0,23.0,29.97,SSW,199,0.0,2.0,62,0.00,,,-99.99,,2013-01-11 04:22:00,
2013-01-10 23:33:00,35.0,23.0,29.97,WSW,237,1.0,3.0,62,0.00,,,-99.99,,2013-01-11 04:33:00,
2013-01-10 23:43:00,35.0,23.0,29.97,WSW,237,1.0,3.0,62,0.00,,,-99.99,,2013-01-11 04:43:00,
2013-01-10 23:53:00,35.0,23.0,29.97,ENE,74,1.0,2.0,62,0.00,,,-99.99,,2013-01-11 04:53:00,